Weather History for Laramie, WY

Change the Weather History Date:

Thursday, August 1, 2013

  Actual Average Record
Temperature  
Mean Temperature 67 °F 64 °F  
Max Temperature 82 °F 80 °F 90 °F (2008)
Min Temperature 51 °F 49 °F 37 °F (1965)
Degree Days  
Heating Degree Days 0 2  
Month to date heating degree days 0 2  
Since 1 June heating degree days 125 312  
Since 1 July heating degree days 22 71  
Cooling Degree Days 2 1  
Month to date cooling degree days 2 1  
Year to date cooling degree days 96 48  
Since 1 June cooling degree days 96 48  
Growing Degree Days 16 (Base 50)    
Moisture  
Dew Point 47 °F    
Average Humidity 52    
Maximum Humidity 83    
Minimum Humidity 21    
Precipitation  
Precipitation 0.11 in 0.05 in 0.81 in (1989)
Month to date precipitation 0.11 0.05  
Year to date precipitation 5.41 6.97  
Sea Level Pressure  
Sea Level Pressure 30.01 in    
Wind  
Wind Speed 13 mph (South)    
Max Wind Speed 30 mph    
Max Gust Speed 41 mph    
Visibility 9 miles    
Events Rain , Thunderstorm    
T = Trace of Precipitation, MM = Missing Value Source: NWS Daily Summary

Daily Weather History Graph

Daily Weather History Graph

Search for Another Location

Airport:

Trip Planner

Search our weather history database for the weather conditions in past years. The results will help you decide how hot, cold, wet, or windy it might be!

Date:

Astronomy

Aug. 01, 2013 Rise Set
Actual Time 5:58 AM MDT 8:19 PM MDT
Civil Twilight 5:27 AM MDT 8:50 PM MDT
Nautical Twilight 4:48 AM MDT 9:28 PM MDT
Astronomical Twilight 4:05 AM MDT 10:10 PM MDT
Moon 1:36 AM MDT (8/1) 4:30 PM MDT (8/1)
Length of Visible Light 15h 23m
Length of Day
14h 21m
Waning Crescent, 23% of the Moon is Illuminated
Aug 1
Waning Crescent
Aug 6
New
Aug 14
First Quarter
Aug 20
Full
Aug 28
Last Quarter

Hourly Weather History & Observations

Time (MDT) Temp. Dew Point Humidity Pressure Visibility Wind Dir Wind Speed Gust Speed Precip Events Conditions
12:53 AM 60.1 °F 46.9 °F 62% 29.98 in 10.0 mi SSE 15.0 mph - N/A   Clear
1:53 AM 57.0 °F 46.0 °F 67% 29.98 in 10.0 mi South 15.0 mph - N/A   Partly Cloudy
2:53 AM 55.9 °F 46.0 °F 69% 29.97 in 10.0 mi South 16.1 mph - N/A   Partly Cloudy
3:53 AM 55.0 °F 46.9 °F 74% 29.96 in 10.0 mi South 12.7 mph - N/A   Clear
4:53 AM 53.1 °F 48.0 °F 83% 29.95 in 10.0 mi South 10.4 mph - N/A   Clear
5:53 AM 52.0 °F 46.9 °F 83% 29.98 in 10.0 mi SSW 11.5 mph - N/A   Clear
6:53 AM 52.0 °F 46.0 °F 80% 29.99 in 10.0 mi SSW 8.1 mph - N/A   Clear
7:53 AM 57.9 °F 46.9 °F 67% 29.98 in 10.0 mi South 5.8 mph - N/A   Clear
8:53 AM 66.9 °F 45.0 °F 45% 29.95 in 10.0 mi South 4.6 mph - N/A   Clear
9:53 AM 75.9 °F 42.1 °F 30% 29.92 in 10.0 mi WSW 8.1 mph - N/A   Clear
10:53 AM 75.9 °F 37.9 °F 25% 29.93 in 10.0 mi West 21.9 mph 35.7 mph N/A   Clear
11:53 AM 80.1 °F 39.0 °F 23% 29.90 in 10.0 mi SSW 18.4 mph 25.3 mph N/A   Partly Cloudy
12:53 PM 81.0 °F 37.0 °F 21% 29.85 in 10.0 mi South 9.2 mph - N/A   Clear
1:37 PM 78.8 °F 35.6 °F 21% 30.21 in 10.0 mi SSW 10.4 mph - N/A Thunderstorm Thunderstorm
1:49 PM 71.6 °F 46.4 °F 41% 30.21 in 2.0 mi East 10.4 mph - 0.04 in Rain , Thunderstorm Light Thunderstorms and Rain
1:53 PM 73.0 °F 46.9 °F 39% 29.88 in 5.0 mi East 5.8 mph - 0.04 in Rain , Thunderstorm Light Thunderstorms and Rain
2:15 PM 75.2 °F 48.2 °F 38% 30.20 in 10.0 mi East 10.4 mph 16.1 mph 0.00 in   Partly Cloudy
2:23 PM 73.4 °F 48.2 °F 41% 30.20 in 10.0 mi East 11.5 mph - 0.00 in Thunderstorm Scattered Clouds
2:34 PM 73.4 °F 46.4 °F 38% 30.21 in 10.0 mi SSE 8.1 mph 16.1 mph 0.00 in Thunderstorm Scattered Clouds
2:53 PM 66.9 °F 46.0 °F 47% 29.95 in 3.0 mi WNW 29.9 mph 41.4 mph 0.01 in Rain , Thunderstorm Light Thunderstorms and Rain
2:55 PM 62.6 °F 46.4 °F 55% 30.25 in 1.5 mi NW 26.5 mph 41.4 mph 0.03 in Rain , Thunderstorm Heavy Thunderstorms and Rain
3:06 PM 66.2 °F 46.4 °F 49% 30.25 in 4.0 mi Variable 4.6 mph 19.6 mph 0.05 in Rain , Thunderstorm Light Thunderstorms and Rain
3:36 PM 66.2 °F 51.8 °F 60% 30.21 in 8.0 mi ESE 9.2 mph - 0.06 in Rain Light Rain
3:53 PM 66.0 °F 53.1 °F 63% 29.91 in 10.0 mi ENE 11.5 mph - 0.06 in   Scattered Clouds
4:53 PM 64.9 °F 52.0 °F 63% 29.97 in 10.0 mi NW 20.7 mph 25.3 mph 0.00 in Rain , Thunderstorm Light Rain
5:04 PM 62.6 °F 51.8 °F 68% 30.23 in 10.0 mi North 11.5 mph 26.5 mph 0.00 in   Mostly Cloudy
5:53 PM 64.0 °F 48.9 °F 58% 29.93 in 10.0 mi East 5.8 mph - 0.00 in   Scattered Clouds
6:53 PM 64.0 °F 51.1 °F 63% 29.96 in 10.0 mi North - - N/A   Partly Cloudy
7:53 PM 61.0 °F 48.0 °F 62% 29.91 in 10.0 mi SW 12.7 mph - 0.00 in   Mostly Cloudy
8:53 PM 55.9 °F 50.0 °F 80% 29.89 in 10.0 mi South 16.1 mph - N/A   Clear
9:53 PM 55.9 °F 48.9 °F 77% 29.85 in 10.0 mi South 9.2 mph - N/A   Clear
10:53 PM 55.9 °F 48.0 °F 75% 29.83 in 10.0 mi SSW 10.4 mph 17.3 mph N/A   Clear
11:53 PM 55.9 °F 46.9 °F 72% 29.82 in 10.0 mi SSW 10.4 mph - N/A   Clear